Terminal Aerodrome Forecast
Issued by NWS Duluth, MN

Home | Current Version | Previous Version | Text Only | Print | Product List | Glossary On
Versions: 1 2 3 4 5 6 7 8 9 10 11 12 13 14 15 16 17 18 19 20 21 22 23 24 25 26 27 28 29
000
FTUS43 KDLH 290445 AAG
TAFDLH
TAF AMD
KDLH 290445Z 2905/2924 VRB04KT 4SM BR BKN050
      TEMPO 2909/2912 1 1/2SM BR OVC003
     FM291600 31008KT P6SM VCSH SCT040 BKN100
     FM291900 31010KT P6SM VCTS BKN040CB=

USA.gov is the U.S. government's official web portal to all federal, state and local government web resources and services.